Location: Rodson Ranch
(38.7188°N, 119.3202°W)
Time: 13:37:32
(UTC+00:00)

Cosmos 2082 Rocket - Pass Details

Date: 29 October 2020
Orbit: 833 x 854 km, 71.0° (Epoch: 01 December)

Event Time Altitude Azimuth Distance (km) Brightness Sun altitude
Exits shadow 13:51:30 - 265° (W) 2,756 4.3 -6.5°
Reaches altitude 10° 13:52:55 10° 277° (W) 2,441 3.9 -6.3°
Maximum altitude 13:55:57 15° 310° (NW) 2,132 3.8 -5.7°
Drops below altitude 10° 13:59:00 10° 343° (NNW) 2,451 4.3 -5.1°
Sets 14:02:40 0° 7° (N) 3,392 5.3 -4.4°
